QPF
0.02 0.04 0.05 0.08 0.10 0.10 0.08 0.07 0.05 0.03 0.02 0.02 0.02 0.04 0.05 0.02 0.05 0.09 0.16 0.15 0.07 0.04 0.07 0.10 0.08 0.07 0.05 0.03 0.02 0.02 0.02 0.02 0.03 0.04 0.04 0.05 0.12 0.14 0.12 0.10 0.07 0.06 0.05 0.06 0.07 0.05 0.05 0.05 0.06
0.04 0.04 0.06 0.09 0.10 0.10 0.07 0.06 0.05 0.03 0.03 0.02 0.01 0.03 0.02 0.01 0.04 0.07 0.18 0.20 0.11 0.08 0.09 0.10 0.10 0.07 0.05 0.03 0.02 0.02 0.02 0.02 0.03 0.04 0.04 0.04 0.08 0.14 0.16 0.13 0.11 0.09 0.07 0.07 0.06 0.05 0.05 0.07 0.07
0.06 0.07 0.09 0.13 0.15 0.09 0.06 0.04 0.04 0.03 0.03 0.03 0.01 0.01 0.01 0.04 0.05 0.06 0.11 0.14 0.11 0.08 0.09 0.11 0.09 0.06 0.03 0.02 0.02 0.02 0.02 0.02 0.02 0.03 0.03 0.03 0.04 0.07 0.12 0.13 0.16 0.14 0.10 0.08 0.07 0.05 0.05 0.06 0.05
0.11 0.18 0.17 0.17 0.13 0.06 0.04 0.03 0.03 0.02 0.01 0.01 0.02 0.01 0.03 0.05 0.07 0.09 0.07 0.10 0.10 0.09 0.07 0.10 0.10 0.06 0.04 0.03 0.02 0.02 0.02 0.02 0.02 0.02 0.03 0.03 0.03 0.05 0.09 0.16 0.14 0.11 0.09 0.09 0.08 0.06 0.06 0.04 0.04
0.13 0.19 0.20 0.14 0.08 0.06 0.03 0.02 0.02 0.02 0.01 0.01 0.02 0.03 0.05 0.05 0.05 0.08 0.06 0.05 0.07 0.09 0.09 0.12 0.11 0.06 0.05 0.04 0.03 0.02 0.01 0.01 0.03 0.02 0.03 0.03 0.04 0.05 0.07 0.09 0.08 0.07 0.07 0.07 0.07 0.07 0.06 0.05 0.06
0.16 0.17 0.18 0.11 0.07 0.04 0.03 0.04 0.04 0.04 0.03 0.01 0.05 0.05 0.08 0.08 0.07 0.07 0.05 0.04 0.06 0.05 0.07 0.12 0.13 0.08 0.05 0.04 0.03 0.03 0.02 0.01 0.03 0.03 0.03 0.03 0.05 0.07 0.06 0.05 0.05 0.04 0.05 0.06 0.05 0.05 0.04 0.04 0.06
0.27 0.19 0.11 0.08 0.07 0.04 0.02 0.03 0.03 0.03 0.04 0.02 0.03 0.03 0.07 0.11 0.09 0.07 0.05 0.04 0.07 0.06 0.08 0.13 0.12 0.09 0.07 0.05 0.04 0.04 0.03 0.02 0.04 0.04 0.04 0.03 0.05 0.05 0.04 0.04 0.04 0.04 0.04 0.04 0.03 0.04 0.04 0.04 0.05
0.18 0.14 0.09 0.08 0.06 0.04 0.02 0.03 0.03 0.02 0.03 0.03 0.04 0.03 0.05 0.10 0.08 0.06 0.06 0.08 0.07 0.07 0.08 0.10 0.08 0.06 0.05 0.06 0.05 0.05 0.05 0.03 0.04 0.05 0.05 0.04 0.04 0.04 0.04 0.03 0.03 0.04 0.04 0.04 0.04 0.05 0.06 0.06 0.06
0.13 0.10 0.08 0.05 0.04 0.03 0.01 0.01 0.03 0.03 0.02 0.01 0.02 0.02 0.02 0.05 0.09 0.08 0.08 0.10 0.06 0.05 0.05 0.05 0.04 0.03 0.03 0.04 0.05 0.05 0.04 0.03 0.04 0.06 0.08 0.05 0.02 0.02 0.02 0.03 0.04 0.05 0.05 0.05 0.05 0.05 0.05 0.07 0.06
0.12 0.08 0.04 0.01 0.01 0.02 0.01 0.01 0.01 0.02 0.01 0.02 0.04 0.01 0.01 0.01 0.04 0.07 0.07 0.10 0.08 0.05 0.04 0.04 0.03 0.03 0.03 0.03 0.03 0.03 0.02 0.01 0.02 0.03 0.04 0.03 0.02 0.01 0.01 0.05 0.07 0.06 0.05 0.06 0.06 0.06 0.06 0.06 0.05
0.09 0.05 0.01 0.00 0.00 0.01 0.01 0.01 0.01 0.01 0.01 0.04 0.10 0.05 0.04 0.02 0.04 0.07 0.07 0.09 0.08 0.05 0.04 0.04 0.04 0.04 0.02 0.02 0.02 0.02 0.02 0.02 0.02 0.02 0.02 0.02 0.01 0.01 0.02 0.05 0.08 0.10 0.07 0.05 0.05 0.04 0.03 0.03 0.03
0.02 0.02 0.01 0.00 0.00 0.00 0.01 0.01 0.01 0.01 0.01 0.02 0.06 0.06 0.06 0.04 0.03 0.05 0.06 0.09 0.07 0.06 0.06 0.05 0.05 0.04 0.02 0.02 0.02 0.02 0.02 0.01 0.01 0.03 0.03 0.01 0.01 0.01 0.02 0.04 0.05 0.10 0.10 0.06 0.03 0.02 0.02 0.02 0.03
0.04 0.03 0.01 0.00 0.00 0.00 0.00 0.01 0.01 0.01 0.01 0.02 0.02 0.05 0.06 0.04 0.04 0.06 0.07 0.07 0.05 0.04 0.05 0.06 0.05 0.03 0.02 0.02 0.02 0.01 0.02 0.02 0.02 0.02 0.02 0.01 0.02 0.02 0.02 0.04 0.04 0.05 0.05 0.04 0.03 0.03 0.03 0.03 0.03
0.02 0.02 0.01 0.01 0.00 0.00 0.00 0.00 0.01 0.02 0.02 0.02 0.02 0.02 0.03 0.04 0.04 0.05 0.05 0.06 0.06 0.04 0.05 0.07 0.09 0.05 0.03 0.03 0.02 0.01 0.01 0.02 0.03 0.02 0.01 0.01 0.01 0.01 0.01 0.03 0.04 0.04 0.03 0.03 0.04 0.06 0.05 0.05 0.03
0.02 0.03 0.02 0.01 0.00 0.00 0.00 0.01 0.01 0.03 0.03 0.03 0.01 0.01 0.02 0.03 0.03 0.03 0.03 0.05 0.06 0.05 0.06 0.10 0.14 0.09 0.05 0.04 0.03 0.01 0.02 0.02 0.01 0.02 0.02 0.01 0.02 0.02 0.01 0.03 0.05 0.06 0.04 0.04 0.05 0.05 0.04 0.03 0.03
0.03 0.05 0.03 0.01 0.01 0.00 0.01 0.01 0.02 0.02 0.04 0.05 0.02 0.01 0.02 0.03 0.03 0.03 0.03 0.03 0.05 0.05 0.05 0.06 0.10 0.10 0.07 0.05 0.04 0.03 0.02 0.01 0.01 0.02 0.02 0.02 0.02 0.02 0.03 0.02 0.04 0.06 0.07 0.06 0.03 0.02 0.02 0.02 0.02
0.04 0.04 0.03 0.02 0.02 0.01 0.01 0.02 0.01 0.02 0.03 0.04 0.02 0.01 0.01 0.02 0.03 0.03 0.02 0.02 0.02 0.03 0.02 0.02 0.03 0.04 0.04 0.04 0.03 0.03 0.02 0.01 0.01 0.01 0.01 0.02 0.02 0.02 0.02 0.02 0.02 0.02 0.05 0.06 0.03 0.01 0.01 0.02 0.03
0.05 0.03 0.03 0.03 0.03 0.03 0.03 0.02 0.01 0.03 0.02 0.04 0.03 0.01 0.00 0.01 0.03 0.03 0.02 0.02 0.01 0.02 0.01 0.01 0.01 0.01 0.01 0.02 0.03 0.02 0.02 0.02 0.02 0.01 0.02 0.01 0.01 0.01 0.01 0.01 0.02 0.02 0.03 0.05 0.04 0.02 0.02 0.02 0.02
0.04 0.04 0.03 0.03 0.03 0.02 0.02 0.02 0.02 0.02 0.02 0.04 0.06 0.02 0.01 0.01 0.03 0.04 0.03 0.03 0.01 0.02 0.02 0.04 0.04 0.02 0.01 0.01 0.01 0.01 0.01 0.02 0.02 0.02 0.02 0.01 0.01 0.01 0.01 0.00 0.01 0.02 0.03 0.05 0.05 0.03 0.03 0.03 0.04
0.03 0.02 0.03 0.02 0.02 0.02 0.02 0.02 0.02 0.03 0.03 0.02 0.04 0.04 0.02 0.03 0.03 0.04 0.04 0.03 0.02 0.02 0.04 0.07 0.06 0.03 0.02 0.02 0.01 0.01 0.00 0.01 0.01 0.01 0.01 0.01 0.01 0.02 0.01 0.01 0.01 0.01 0.01 0.03 0.05 0.05 0.03 0.03 0.04
0.02 0.02 0.02 0.05 0.04 0.02 0.02 0.05 0.03 0.03 0.03 0.04 0.05 0.05 0.03 0.02 0.02 0.03 0.05 0.04 0.03 0.02 0.03 0.03 0.03 0.02 0.02 0.03 0.03 0.02 0.01 0.01 0.01 0.02 0.01 0.01 0.01 0.03 0.02 0.02 0.02 0.01 0.01 0.03 0.06 0.06 0.04 0.05 0.05
0.01 0.02 0.03 0.05 0.05 0.03 0.03 0.05 0.04 0.02 0.02 0.05 0.08 0.09 0.05 0.04 0.03 0.03 0.03 0.03 0.03 0.02 0.02 0.02 0.02 0.02 0.01 0.01 0.02 0.03 0.02 0.01 0.02 0.02 0.03 0.03 0.03 0.04 0.03 0.03 0.03 0.03 0.03 0.04 0.04 0.03 0.05 0.07 0.06
0.01 0.01 0.02 0.03 0.03 0.03 0.04 0.04 0.03 0.01 0.02 0.04 0.09 0.11 0.06 0.05 0.04 0.03 0.03 0.03 0.03 0.03 0.02 0.02 0.02 0.03 0.02 0.01 0.02 0.01 0.01 0.02 0.03 0.04 0.05 0.05 0.05 0.04 0.04 0.05 0.05 0.05 0.05 0.04 0.04 0.04 0.05 0.08 0.09
0.01 0.01 0.01 0.02 0.03 0.05 0.05 0.04 0.03 0.02 0.03 0.05 0.08 0.10 0.06 0.05 0.04 0.04 0.04 0.04 0.04 0.03 0.03 0.03 0.03 0.04 0.03 0.02 0.02 0.01 0.01 0.01 0.02 0.04 0.04 0.03 0.03 0.03 0.04 0.05 0.05 0.06 0.06 0.06 0.06 0.06 0.06 0.07 0.07
0.00 0.01 0.02 0.04 0.04 0.06 0.05 0.06 0.04 0.03 0.02 0.02 0.05 0.12 0.09 0.07 0.09 0.07 0.05 0.05 0.05 0.04 0.04 0.04 0.04 0.03 0.03 0.02 0.01 0.02 0.01 0.01 0.02 0.02 0.03 0.02 0.02 0.02 0.03 0.04 0.04 0.05 0.06 0.07 0.07 0.07 0.08 0.09 0.09
0.00 0.00 0.01 0.03 0.03 0.04 0.05 0.09 0.07 0.03 0.03 0.04 0.07 0.10 0.11 0.10 0.14 0.13 0.08 0.07 0.06 0.06 0.06 0.05 0.05 0.04 0.04 0.02 0.02 0.02 0.02 0.02 0.02 0.02 0.03 0.02 0.02 0.02 0.02 0.03 0.03 0.04 0.06 0.08 0.11 0.13 0.12 0.11 0.10
0.00 0.00 0.00 0.02 0.02 0.03 0.03 0.06 0.09 0.06 0.06 0.10 0.15 0.16 0.15 0.14 0.12 0.13 0.15 0.19 0.13 0.08 0.06 0.07 0.06 0.05 0.04 0.03 0.03 0.02 0.02 0.02 0.02 0.02 0.02 0.02 0.01 0.01 0.01 0.01 0.02 0.04 0.06 0.09 0.11 0.12 0.11 0.08 0.08
0.01 0.01 0.01 0.02 0.03 0.03 0.04 0.06 0.07 0.07 0.08 0.13 0.15 0.15 0.14 0.19 0.18 0.17 0.23 0.27 0.26 0.12 0.07 0.07 0.05 0.05 0.06 0.06 0.05 0.04 0.03 0.04 0.06 0.04 0.01 0.01 0.00 0.00 0.00 0.01 0.02 0.02 0.04 0.05 0.05 0.05 0.05 0.06 0.07
0.01 0.01 0.01 0.02 0.02 0.03 0.05 0.05 0.04 0.03 0.03 0.05 0.08 0.13 0.11 0.10 0.17 0.14 0.22 0.22 0.18 0.10 0.09 0.13 0.10 0.09 0.10 0.11 0.08 0.04 0.03 0.04 0.04 0.02 0.01 0.01 0.01 0.01 0.01 0.02 0.01 0.01 0.02 0.02 0.03 0.04 0.05 0.05 0.04
0.00 0.01 0.02 0.02 0.03 0.04 0.06 0.05 0.03 0.02 0.03 0.03 0.04 0.07 0.08 0.06 0.10 0.13 0.16 0.15 0.08 0.07 0.09 0.11 0.08 0.07 0.07 0.07 0.05 0.03 0.03 0.03 0.02 0.02 0.01 0.02 0.02 0.01 0.01 0.01 0.02 0.02 0.02 0.02 0.02 0.02 0.02 0.02 0.02
MSLP
1009.95 1010.62 1011.33 1011.93 1012.30 1012.38 1012.15 1011.68 1011.07 1010.47 1010.01 1009.77 1009.79 1010.02 1010.38 1010.76 1011.03 1011.13 1011.04 1010.79 1010.48 1010.20 1010.06 1010.10 1010.36 1010.77 1011.25 1011.72 1012.11 1012.37 1012.52 1012.61 1012.70 1012.86 1013.14 1013.53 1014.01 1014.51 1014.96 1015.29 1015.49 1015.54 1015.50 1015.40 1015.33 1015.30 1015.36 1015.49 1015.66
1010.16 1010.89 1011.55 1012.04 1012.24 1012.13 1011.72 1011.11 1010.43 1009.82 1009.41 1009.26 1009.38 1009.71 1010.14 1010.55 1010.83 1010.92 1010.81 1010.57 1010.28 1010.05 1009.97 1010.09 1010.42 1010.90 1011.43 1011.95 1012.37 1012.66 1012.84 1012.95 1013.05 1013.22 1013.48 1013.85 1014.28 1014.72 1015.11 1015.40 1015.56 1015.60 1015.57 1015.49 1015.43 1015.42 1015.46 1015.56 1015.67
1010.50 1011.22 1011.80 1012.13 1012.14 1011.84 1011.27 1010.56 1009.85 1009.28 1008.96 1008.92 1009.15 1009.57 1010.06 1010.49 1010.77 1010.83 1010.71 1010.46 1010.20 1010.02 1010.00 1010.19 1010.59 1011.11 1011.69 1012.23 1012.67 1012.99 1013.19 1013.32 1013.44 1013.60 1013.84 1014.16 1014.53 1014.89 1015.21 1015.44 1015.56 1015.59 1015.56 1015.51 1015.48 1015.48 1015.52 1015.59 1015.66
1010.94 1011.60 1012.06 1012.21 1012.04 1011.56 1010.88 1010.12 1009.43 1008.94 1008.74 1008.83 1009.18 1009.68 1010.20 1010.64 1010.89 1010.93 1010.80 1010.56 1010.33 1010.20 1010.24 1010.49 1010.92 1011.47 1012.06 1012.60 1013.03 1013.35 1013.56 1013.70 1013.83 1013.99 1014.21 1014.48 1014.77 1015.05 1015.29 1015.44 1015.52 1015.54 1015.52 1015.50 1015.50 1015.52 1015.57 1015.61 1015.64
1011.42 1011.99 1012.29 1012.26 1011.92 1011.31 1010.57 1009.82 1009.21 1008.85 1008.79 1009.02 1009.47 1010.03 1010.57 1010.99 1011.22 1011.25 1011.11 1010.90 1010.70 1010.63 1010.72 1011.00 1011.45 1011.99 1012.54 1013.03 1013.44 1013.73 1013.92 1014.07 1014.20 1014.36 1014.56 1014.79 1015.02 1015.22 1015.37 1015.46 1015.49 1015.49 1015.48 1015.48 1015.51 1015.56 1015.61 1015.64 1015.63
1011.86 1012.29 1012.42 1012.23 1011.76 1011.09 1010.35 1009.68 1009.20 1009.00 1009.10 1009.46 1009.99 1010.59 1011.13 1011.53 1011.73 1011.74 1011.62 1011.45 1011.31 1011.30 1011.43 1011.73 1012.16 1012.64 1013.11 1013.53 1013.85 1014.09 1014.26 1014.40 1014.54 1014.70 1014.89 1015.09 1015.28 1015.42 1015.50 1015.52 1015.51 1015.48 1015.46 1015.48 1015.52 1015.59 1015.65 1015.68 1015.66
1012.15 1012.42 1012.39 1012.07 1011.52 1010.86 1010.19 1009.66 1009.35 1009.34 1009.59 1010.07 1010.66 1011.27 1011.80 1012.16 1012.34 1012.35 1012.26 1012.14 1012.08 1012.12 1012.30 1012.60 1012.98 1013.38 1013.74 1014.04 1014.27 1014.42 1014.55 1014.67 1014.82 1015.00 1015.20 1015.40 1015.56 1015.65 1015.68 1015.65 1015.58 1015.52 1015.49 1015.50 1015.56 1015.64 1015.71 1015.74 1015.71
1012.20 1012.32 1012.15 1011.75 1011.18 1010.58 1010.05 1009.69 1009.59 1009.76 1010.16 1010.73 1011.37 1011.97 1012.46 1012.79 1012.95 1012.97 1012.93 1012.88 1012.90 1013.01 1013.22 1013.51 1013.83 1014.13 1014.38 1014.55 1014.65 1014.72 1014.79 1014.89 1015.05 1015.25 1015.48 1015.68 1015.84 1015.91 1015.90 1015.82 1015.71 1015.61 1015.55 1015.55 1015.61 1015.69 1015.77 1015.82 1015.81
1011.98 1011.97 1011.70 1011.25 1010.73 1010.23 1009.87 1009.72 1009.82 1010.17 1010.70 1011.34 1011.99 1012.57 1013.02 1013.31 1013.46 1013.51 1013.52 1013.55 1013.65 1013.84 1014.08 1014.37 1014.63 1014.83 1014.96 1015.01 1015.00 1014.98 1015.00 1015.08 1015.24 1015.47 1015.72 1015.94 1016.10 1016.17 1016.14 1016.03 1015.88 1015.74 1015.65 1015.63 1015.68 1015.77 1015.86 1015.93 1015.95
1011.51 1011.40 1011.08 1010.64 1010.19 1009.84 1009.66 1009.71 1009.99 1010.49 1011.11 1011.79 1012.44 1012.99 1013.39 1013.65 1013.80 1013.88 1013.96 1014.07 1014.26 1014.51 1014.79 1015.07 1015.29 1015.42 1015.45 1015.40 1015.30 1015.22 1015.19 1015.25 1015.41 1015.65 1015.91 1016.16 1016.33 1016.40 1016.35 1016.23 1016.05 1015.89 1015.77 1015.73 1015.77 1015.87 1015.99 1016.09 1016.16
1010.89 1010.72 1010.39 1010.00 1009.65 1009.44 1009.43 1009.65 1010.08 1010.68 1011.36 1012.05 1012.67 1013.17 1013.54 1013.78 1013.93 1014.05 1014.19 1014.39 1014.65 1014.95 1015.27 1015.56 1015.75 1015.84 1015.82 1015.71 1015.56 1015.43 1015.37 1015.41 1015.56 1015.79 1016.06 1016.30 1016.48 1016.55 1016.51 1016.38 1016.20 1016.03 1015.91 1015.86 1015.90 1016.01 1016.16 1016.31 1016.43
1010.25 1010.07 1009.76 1009.44 1009.20 1009.12 1009.24 1009.58 1010.10 1010.75 1011.44 1012.11 1012.68 1013.14 1013.47 1013.71 1013.88 1014.04 1014.23 1014.49 1014.80 1015.15 1015.50 1015.79 1015.99 1016.07 1016.04 1015.92 1015.76 1015.61 1015.54 1015.56 1015.68 1015.89 1016.14 1016.37 1016.54 1016.61 1016.58 1016.47 1016.31 1016.15 1016.04 1016.01 1016.07 1016.21 1016.40 1016.60 1016.79
1009.75 1009.58 1009.32 1009.08 1008.93 1008.96 1009.17 1009.57 1010.11 1010.75 1011.40 1012.01 1012.53 1012.94 1013.25 1013.49 1013.68 1013.88 1014.11 1014.40 1014.74 1015.11 1015.47 1015.78 1015.99 1016.10 1016.10 1016.02 1015.89 1015.77 1015.69 1015.69 1015.78 1015.94 1016.14 1016.34 1016.48 1016.56 1016.55 1016.47 1016.36 1016.25 1016.18 1016.19 1016.29 1016.47 1016.70 1016.96 1017.21
1009.49 1009.36 1009.17 1009.00 1008.94 1009.03 1009.28 1009.67 1010.18 1010.74 1011.31 1011.83 1012.28 1012.65 1012.95 1013.19 1013.41 1013.64 1013.89 1014.19 1014.53 1014.88 1015.23 1015.54 1015.78 1015.94 1016.01 1016.00 1015.94 1015.87 1015.81 1015.79 1015.84 1015.93 1016.07 1016.20 1016.32 1016.40 1016.42 1016.40 1016.36 1016.33 1016.33 1016.41 1016.55 1016.78 1017.06 1017.38 1017.69
1009.50 1009.44 1009.32 1009.23 1009.23 1009.35 1009.59 1009.93 1010.35 1010.79 1011.24 1011.65 1012.03 1012.35 1012.64 1012.90 1013.15 1013.39 1013.65 1013.93 1014.22 1014.54 1014.85 1015.15 1015.42 1015.63 1015.78 1015.87 1015.91 1015.90 1015.88 1015.85 1015.84 1015.87 1015.92 1015.99 1016.07 1016.15 1016.22 1016.28 1016.33 1016.39 1016.49 1016.64 1016.85 1017.12 1017.45 1017.81 1018.16
1009.75 1009.74 1009.70 1009.70 1009.76 1009.90 1010.10 1010.36 1010.64 1010.94 1011.24 1011.53 1011.81 1012.10 1012.38 1012.66 1012.93 1013.19 1013.43 1013.67 1013.91 1014.15 1014.41 1014.68 1014.95 1015.22 1015.46 1015.66 1015.80 1015.87 1015.89 1015.86 1015.80 1015.75 1015.72 1015.73 1015.77 1015.86 1015.98 1016.12 1016.27 1016.45 1016.65 1016.88 1017.15 1017.47 1017.82 1018.21 1018.59
1010.09 1010.15 1010.21 1010.31 1010.44 1010.60 1010.77 1010.92 1011.07 1011.19 1011.32 1011.47 1011.66 1011.89 1012.17 1012.47 1012.77 1013.05 1013.28 1013.47 1013.63 1013.79 1013.97 1014.19 1014.46 1014.77 1015.09 1015.39 1015.63 1015.79 1015.85 1015.82 1015.72 1015.60 1015.50 1015.44 1015.46 1015.55 1015.72 1015.94 1016.20 1016.48 1016.78 1017.09 1017.41 1017.75 1018.13 1018.52 1018.91
1010.38 1010.53 1010.71 1010.93 1011.16 1011.37 1011.51 1011.58 1011.57 1011.52 1011.47 1011.46 1011.54 1011.73 1012.00 1012.32 1012.65 1012.95 1013.17 1013.33 1013.42 1013.49 1013.59 1013.75 1014.00 1014.33 1014.70 1015.09 1015.42 1015.65 1015.76 1015.74 1015.62 1015.45 1015.28 1015.17 1015.16 1015.26 1015.47 1015.76 1016.12 1016.49 1016.87 1017.23 1017.58 1017.94 1018.31 1018.70 1019.09
1010.48 1010.74 1011.08 1011.47 1011.83 1012.12 1012.27 1012.26 1012.11 1011.88 1011.64 1011.47 1011.43 1011.54 1011.80 1012.14 1012.52 1012.85 1013.09 1013.23 1013.27 1013.28 1013.30 1013.39 1013.60 1013.93 1014.34 1014.78 1015.18 1015.48 1015.64 1015.63 1015.50 1015.29 1015.08 1014.93 1014.89 1015.00 1015.24 1015.59 1016.01 1016.45 1016.87 1017.27 1017.64 1017.99 1018.34 1018.71 1019.10
1010.33 1010.74 1011.27 1011.86 1012.40 1012.80 1012.98 1012.92 1012.64 1012.23 1011.79 1011.44 1011.26 1011.29 1011.51 1011.88 1012.31 1012.70 1012.98 1013.13 1013.16 1013.12 1013.08 1013.12 1013.29 1013.59 1014.01 1014.49 1014.94 1015.29 1015.49 1015.51 1015.38 1015.15 1014.91 1014.73 1014.68 1014.77 1015.03 1015.40 1015.85 1016.33 1016.78 1017.18 1017.54 1017.87 1018.19 1018.53 1018.91
1009.94 1010.52 1011.29 1012.13 1012.88 1013.41 1013.64 1013.53 1013.13 1012.53 1011.88 1011.33 1010.99 1010.91 1011.10 1011.48 1011.96 1012.42 1012.78 1012.98 1013.03 1012.98 1012.91 1012.91 1013.03 1013.30 1013.72 1014.20 1014.68 1015.07 1015.30 1015.36 1015.24 1015.02 1014.77 1014.57 1014.50 1014.58 1014.82 1015.19 1015.64 1016.12 1016.56 1016.95 1017.28 1017.58 1017.87 1018.18 1018.55
1009.41 1010.22 1011.25 1012.34 1013.31 1013.98 1014.26 1014.11 1013.57 1012.77 1011.90 1011.13 1010.61 1010.41 1010.53 1010.92 1011.45 1012.00 1012.44 1012.72 1012.83 1012.81 1012.74 1012.70 1012.79 1013.03 1013.42 1013.89 1014.38 1014.80 1015.07 1015.16 1015.08 1014.87 1014.63 1014.42 1014.33 1014.38 1014.59 1014.94 1015.37 1015.81 1016.23 1016.59 1016.88 1017.14 1017.40 1017.69 1018.04
1008.92 1009.96 1011.25 1012.59 1013.76 1014.56 1014.87 1014.65 1013.96 1012.96 1011.86 1010.87 1010.15 1009.80 1009.85 1010.22 1010.79 1011.42 1011.96 1012.34 1012.52 1012.55 1012.50 1012.45 1012.51 1012.72 1013.07 1013.53 1014.02 1014.46 1014.76 1014.89 1014.85 1014.68 1014.46 1014.25 1014.14 1014.16 1014.34 1014.64 1015.01 1015.42 1015.79 1016.11 1016.38 1016.61 1016.84 1017.11 1017.45
1008.59 1009.87 1011.41 1012.96 1014.28 1015.16 1015.47 1015.16 1014.32 1013.11 1011.78 1010.56 1009.65 1009.15 1009.10 1009.44 1010.03 1010.72 1011.34 1011.81 1012.08 1012.17 1012.14 1012.10 1012.14 1012.31 1012.63 1013.07 1013.56 1014.01 1014.35 1014.53 1014.54 1014.42 1014.22 1014.03 1013.91 1013.90 1014.03 1014.27 1014.60 1014.95 1015.28 1015.58 1015.82 1016.03 1016.24 1016.49 1016.81
1008.53 1010.03 1011.75 1013.45 1014.87 1015.78 1016.04 1015.63 1014.63 1013.23 1011.69 1010.27 1009.17 1008.53 1008.37 1008.65 1009.24 1009.95 1010.64 1011.17 1011.51 1011.64 1011.65 1011.61 1011.63 1011.78 1012.07 1012.49 1012.97 1013.43 1013.81 1014.05 1014.12 1014.05 1013.90 1013.73 1013.60 1013.57 1013.65 1013.85 1014.12 1014.43 1014.73 1015.00 1015.23 1015.44 1015.64 1015.88 1016.19
1008.73 1010.39 1012.24 1014.02 1015.45 1016.33 1016.51 1015.99 1014.85 1013.29 1011.59 1010.01 1008.76 1007.99 1007.73 1007.94 1008.49 1009.19 1009.89 1010.45 1010.82 1010.98 1011.01 1010.97 1010.98 1011.10 1011.37 1011.77 1012.24 1012.73 1013.15 1013.44 1013.58 1013.57 1013.47 1013.33 1013.22 1013.17 1013.22 1013.38 1013.61 1013.88 1014.17 1014.43 1014.66 1014.87 1015.08 1015.31 1015.59
1009.09 1010.85 1012.75 1014.52 1015.90 1016.69 1016.78 1016.15 1014.90 1013.24 1011.45 1009.77 1008.43 1007.57 1007.23 1007.35 1007.83 1008.48 1009.14 1009.69 1010.05 1010.21 1010.24 1010.20 1010.19 1010.30 1010.54 1010.93 1011.41 1011.91 1012.37 1012.72 1012.92 1012.98 1012.94 1012.84 1012.74 1012.69 1012.73 1012.85 1013.06 1013.32 1013.59 1013.86 1014.11 1014.33 1014.55 1014.78 1015.04
1009.48 1011.26 1013.11 1014.79 1016.06 1016.73 1016.71 1016.00 1014.70 1013.02 1011.21 1009.52 1008.16 1007.26 1006.86 1006.90 1007.29 1007.85 1008.43 1008.91 1009.23 1009.36 1009.37 1009.32 1009.31 1009.40 1009.64 1010.02 1010.50 1011.02 1011.51 1011.91 1012.17 1012.30 1012.31 1012.26 1012.19 1012.15 1012.18 1012.29 1012.48 1012.73 1013.01 1013.29 1013.55 1013.80 1014.03 1014.25 1014.49
1009.70 1011.43 1013.16 1014.68 1015.78 1016.31 1016.19 1015.44 1014.17 1012.55 1010.82 1009.21 1007.90 1007.02 1006.58 1006.56 1006.84 1007.29 1007.76 1008.15 1008.39 1008.48 1008.46 1008.40 1008.38 1008.47 1008.71 1009.09 1009.58 1010.11 1010.63 1011.06 1011.38 1011.56 1011.63 1011.62 1011.59 1011.57 1011.60 1011.71 1011.89 1012.13 1012.41 1012.69 1012.98 1013.24 1013.48 1013.70 1013.92
1009.67 1011.26 1012.79 1014.10 1015.00 1015.38 1015.19 1014.44 1013.25 1011.77 1010.21 1008.76 1007.58 1006.77 1006.34 1006.27 1006.46 1006.78 1007.13 1007.40 1007.56 1007.60 1007.55 1007.49 1007.48 1007.59 1007.83 1008.22 1008.71 1009.26 1009.79 1010.25 1010.60 1010.82 1010.94 1010.97 1010.97 1010.97 1011.01 1011.11 1011.28 1011.51 1011.78 1012.06 1012.35 1012.61 1012.86 1013.08 1013.28
Thickness
5824 5821 5818 5806 5788 5774 5772 5788 5802 5806 5809 5818 5822 5816 5804 5796 5788 5779 5803 5810 5809 5808 5808 5808 5807 5806 5805 5805 5804 5803 5803 5802 5801 5800 5799 5798 5798 5798 5795 5793 5791 5789 5788 5786 5784 5783 5782 5780 5779
5826 5823 5812 5798 5778 5761 5773 5796 5802 5810 5817 5823 5822 5816 5807 5800 5806 5803 5806 5809 5810 5809 5808 5808 5807 5806 5805 5804 5803 5803 5802 5801 5801 5799 5798 5797 5796 5796 5794 5792 5790 5789 5787 5785 5784 5782 5781 5780 5778
5828 5823 5804 5789 5776 5768 5780 5803 5810 5818 5826 5824 5817 5816 5809 5802 5807 5807 5810 5811 5810 5809 5809 5808 5807 5806 5805 5804 5803 5802 5801 5800 5800 5799 5798 5797 5795 5794 5793 5791 5789 5788 5786 5784 5783 5782 5780 5779 5777
5825 5813 5801 5784 5778 5793 5801 5811 5819 5817 5822 5824 5817 5806 5810 5817 5815 5815 5815 5813 5810 5809 5809 5808 5807 5805 5804 5803 5802 5801 5801 5800 5799 5798 5797 5796 5795 5794 5792 5791 5789 5787 5786 5784 5783 5781 5779 5778 5777
5821 5803 5786 5779 5788 5805 5817 5823 5824 5817 5815 5817 5815 5801 5802 5816 5821 5819 5816 5813 5811 5809 5809 5808 5806 5805 5804 5803 5802 5801 5800 5799 5798 5797 5796 5795 5794 5793 5792 5790 5789 5787 5785 5783 5782 5781 5779 5778 5777
5809 5799 5779 5775 5792 5811 5822 5829 5826 5819 5816 5816 5812 5801 5800 5816 5817 5816 5816 5814 5814 5812 5808 5807 5806 5805 5804 5803 5802 5801 5799 5798 5797 5796 5795 5794 5793 5792 5792 5790 5788 5787 5785 5783 5782 5780 5779 5778 5776
5805 5793 5784 5788 5796 5807 5823 5834 5826 5820 5816 5818 5818 5800 5800 5810 5817 5819 5817 5814 5813 5811 5808 5807 5805 5804 5803 5802 5801 5800 5799 5798 5796 5796 5795 5794 5793 5791 5790 5789 5788 5786 5784 5783 5782 5780 5779 5778 5776
5820 5800 5790 5794 5799 5808 5830 5836 5835 5828 5821 5830 5825 5804 5798 5810 5819 5820 5815 5812 5810 5809 5807 5806 5806 5805 5804 5803 5801 5800 5799 5798 5796 5795 5794 5793 5792 5790 5789 5788 5787 5786 5784 5783 5782 5781 5779 5778 5777
5828 5797 5786 5798 5807 5816 5834 5832 5835 5841 5832 5829 5829 5821 5819 5822 5819 5815 5809 5806 5806 5806 5806 5806 5805 5805 5804 5803 5801 5800 5798 5797 5796 5794 5793 5792 5791 5790 5788 5787 5787 5786 5785 5784 5783 5782 5780 5779 5777
5819 5795 5805 5825 5830 5831 5837 5835 5835 5828 5820 5818 5820 5824 5825 5822 5817 5811 5806 5803 5803 5803 5805 5806 5805 5805 5804 5803 5801 5799 5797 5796 5795 5794 5792 5791 5790 5789 5788 5787 5786 5786 5786 5785 5783 5782 5780 5779 5777
5824 5813 5828 5838 5845 5846 5839 5838 5842 5826 5812 5816 5817 5819 5821 5820 5815 5811 5808 5807 5806 5807 5807 5807 5807 5806 5804 5802 5800 5798 5796 5795 5794 5793 5792 5791 5789 5788 5787 5786 5785 5785 5785 5784 5783 5781 5779 5778 5777
5827 5834 5840 5843 5850 5848 5843 5840 5835 5831 5826 5835 5833 5830 5824 5819 5816 5814 5811 5810 5809 5807 5807 5808 5808 5806 5804 5802 5800 5798 5796 5794 5793 5792 5791 5790 5789 5787 5786 5785 5784 5784 5783 5782 5781 5779 5779 5777 5776
5830 5837 5845 5849 5850 5850 5848 5840 5836 5833 5840 5841 5836 5831 5825 5821 5819 5818 5817 5814 5812 5809 5808 5809 5809 5806 5804 5803 5800 5798 5796 5794 5793 5792 5791 5790 5789 5787 5786 5785 5784 5783 5782 5781 5779 5778 5778 5776 5775
5837 5842 5846 5848 5848 5849 5842 5839 5836 5833 5841 5837 5832 5826 5825 5822 5820 5817 5815 5813 5812 5811 5809 5809 5808 5807 5805 5803 5800 5798 5796 5795 5793 5792 5791 5790 5789 5787 5786 5785 5783 5782 5782 5781 5779 5778 5777 5776 5775
5845 5836 5837 5842 5845 5844 5842 5824 5829 5837 5838 5832 5829 5826 5825 5823 5822 5819 5818 5816 5815 5813 5811 5809 5808 5807 5804 5802 5800 5798 5797 5795 5793 5792 5791 5790 5788 5787 5786 5784 5782 5781 5781 5780 5778 5777 5775 5774 5773
5833 5821 5811 5831 5841 5844 5830 5803 5829 5839 5835 5828 5828 5827 5824 5824 5823 5823 5822 5819 5818 5815 5812 5810 5809 5806 5804 5802 5800 5799 5797 5795 5793 5792 5791 5790 5788 5787 5785 5783 5782 5781 5780 5779 5777 5775 5772 5771 5770
5808 5798 5804 5820 5840 5840 5826 5810 5830 5839 5834 5827 5827 5827 5825 5823 5823 5824 5825 5823 5821 5818 5814 5811 5809 5806 5805 5803 5801 5799 5797 5795 5794 5793 5791 5790 5789 5787 5785 5783 5781 5780 5779 5777 5776 5773 5771 5769 5767
5791 5797 5803 5810 5831 5834 5822 5818 5831 5836 5833 5828 5828 5827 5826 5824 5824 5826 5826 5825 5822 5819 5816 5813 5810 5808 5806 5803 5800 5797 5796 5795 5794 5793 5791 5790 5788 5787 5784 5782 5780 5779 5777 5775 5774 5772 5770 5768 5766
5810 5805 5802 5815 5834 5827 5820 5818 5826 5833 5831 5827 5826 5825 5825 5826 5828 5829 5827 5825 5821 5817 5814 5812 5809 5807 5805 5801 5797 5794 5791 5792 5791 5791 5790 5789 5787 5785 5783 5781 5779 5778 5775 5774 5772 5770 5767 5764 5764
5813 5803 5803 5815 5833 5826 5817 5817 5827 5832 5832 5832 5829 5826 5825 5824 5824 5825 5825 5824 5820 5816 5813 5811 5809 5807 5805 5803 5801 5797 5794 5792 5791 5790 5789 5788 5786 5784 5782 5780 5777 5776 5774 5772 5770 5767 5763 5761 5761
5810 5805 5806 5807 5821 5826 5815 5805 5816 5827 5833 5833 5833 5833 5830 5827 5824 5823 5823 5822 5819 5816 5814 5813 5809 5807 5806 5804 5801 5797 5793 5790 5787 5786 5786 5786 5785 5783 5781 5779 5776 5774 5772 5769 5768 5766 5762 5757 5756
5802 5823 5823 5816 5803 5792 5803 5778 5801 5814 5818 5824 5827 5828 5828 5829 5826 5823 5821 5818 5817 5818 5817 5814 5811 5808 5806 5804 5799 5794 5788 5784 5784 5784 5784 5784 5783 5781 5779 5777 5775 5772 5770 5767 5766 5764 5761 5757 5751
5817 5832 5825 5817 5801 5789 5794 5779 5788 5807 5804 5813 5822 5825 5828 5830 5828 5825 5824 5821 5818 5818 5815 5813 5810 5807 5805 5802 5798 5793 5789 5786 5785 5783 5781 5780 5780 5779 5777 5775 5772 5770 5768 5765 5763 5761 5758 5755 5750
5834 5823 5814 5804 5787 5768 5783 5777 5778 5798 5807 5814 5820 5825 5827 5828 5829 5827 5825 5822 5818 5815 5813 5811 5807 5804 5802 5799 5796 5792 5788 5785 5782 5780 5778 5777 5776 5775 5774 5772 5770 5767 5765 5762 5760 5757 5754 5752 5750
5823 5793 5768 5763 5753 5759 5784 5779 5782 5812 5823 5824 5824 5825 5828 5829 5826 5824 5821 5818 5816 5813 5810 5808 5805 5801 5799 5796 5793 5791 5788 5785 5781 5779 5776 5774 5772 5771 5770 5770 5767 5765 5763 5760 5757 5754 5751 5749 5746
5813 5797 5764 5749 5747 5758 5777 5773 5794 5822 5829 5831 5830 5829 5827 5824 5823 5821 5820 5818 5815 5812 5808 5806 5802 5799 5797 5794 5790 5789 5787 5784 5781 5779 5776 5774 5772 5771 5769 5767 5765 5762 5760 5758 5754 5751 5748 5746 5743
5810 5798 5798 5770 5761 5753 5763 5780 5799 5818 5820 5822 5822 5822 5821 5820 5819 5818 5818 5815 5813 5809 5806 5804 5801 5797 5795 5792 5788 5786 5784 5782 5780 5778 5775 5773 5772 5770 5767 5764 5761 5759 5757 5754 5751 5748 5745 5743 5741
5824 5810 5785 5766 5748 5741 5755 5769 5778 5797 5804 5810 5814 5815 5815 5817 5816 5814 5813 5811 5810 5808 5806 5803 5800 5796 5794 5790 5787 5785 5782 5780 5779 5776 5773 5771 5770 5767 5764 5761 5758 5755 5753 5750 5748 5744 5743 5740 5737
5810 5801 5785 5766 5762 5744 5740 5761 5805 5804 5807 5806 5808 5811 5813 5815 5815 5813 5812 5810 5809 5807 5804 5800 5797 5794 5790 5788 5786 5783 5780 5778 5776 5773 5771 5769 5767 5764 5761 5758 5755 5751 5748 5746 5743 5740 5738 5736 5733
5815 5803 5786 5764 5758 5755 5747 5762 5814 5811 5812 5810 5807 5808 5813 5815 5814 5813 5810 5807 5804 5802 5800 5798 5795 5792 5789 5787 5784 5780 5778 5775 5772 5770 5769 5766 5763 5761 5758 5755 5751 5748 5745 5743 5739 5736 5734 5731 5728